Tracking 17145 objects as of 23-May-2015
HD Live streaming from Space Station

COSMOS 482 DESCENT CRAFT

Track COSMOS 482 DESCENT CRAFT now!
10-day predictions
COSMOS 482 DESCENT CRAFT is classified as:


NORAD ID: 6073
Int'l Code: 1972-023E
Perigee: 211.2 km
Apogee: 2,955.3 km
Inclination: 52.1 °
Period: 117.7 minutes
Semi major axis: 7954 km
RCS: 0.7153 m2 (medium)
Launch date: March 31, 1972
Source: Commonwealth of Independent States (former USSR) (CIS)
Your satellite tracking list
Your tracking list is empty





NASA's NSSDC Master Catalog

Two Line Element Set (TLE):
1 06073U 72023E   15143.56826196  .00024437  52171-5  13343-3 0  9995
2 06073 052.0667 284.7850 1724942 041.6432 037.4579 12.23778572266943

Source of the keplerian elements: AFSPC

N2YO: 354